Powrót do katalogu

STARLINK-3203

AktywnyŁącznośćVLEO
NORAD 49761·PAYLOAD·🇺🇸 United States

Wystrzelony Dec 2, 2021 z Cape Canaveral Space Force Station

Loading…

Następne Przeloty (najbliższe 24 godziny)

TLE

ŚwieżeSource: CelesTrak SupGP

Epoka: Sep 14, 2026, 21:16 UTC

1 49761C 21115AP  26257.88659722 -.00029805  00000+0 -88060-3 0  2573
2 49761  53.1589 355.6277 0001284  76.6755 104.9826 15.34405848    19

Śledź STARLINK-3203 w czasie rzeczywistym z AllMySat

Download on the App Store